EW6378 Weather Reports


Display with metric or nautical units.
time (UTC)temp
F
wind
direction
speed
MPH
gust
MPH
rain 1hr
in
rain 24hr
in
rain mn
in
humidity
%
barometer
mb
20260507070138 56 0 0.0 2.0 0.01 0.18 0.04 100 1010.6
20260507065559 56 319 0.0 1.0 0.01 0.18 0.04 100 1010.8
20260507065057 56 0 0.0 1.0 0.01 0.18 0.04 100 1010.8
20260507064557 56 0 0.0 1.0 0.01 0.18 0.04 100 1010.9
20260507064058 56 0 0.0 0.0 0.01 0.18 0.04 100 1010.6
20260507063558 56 0 0.0 0.0 0.01 0.18 0.04 100 1010.5
20260507063101 56 0 0.0 0.0 0.02 0.18 0.04 100 1010.2
20260507062557 56 0 0.0 2.0 0.03 0.18 0.04 100 1010.4
20260507062059 56 0 0.0 2.0 0.04 0.18 0.04 100 1010.4
20260507061559 56 0 0.0 2.0 0.04 0.18 0.04 100 1010.6
20260507061056 56 0 0.0 2.0 0.03 0.17 0.03 100 1010.8
20260507060554 57 0 0.0 2.0 0.03 0.17 0.03 100 1010.7
20260507060100 57 0 0.0 1.0 0.03 0.17 0.03 100 1010.8
20260507055557 57 0 0.0 3.0 0.03 0.17 0.03 100 1010.9
20260507055059 57 0 0.0 3.0 0.03 0.17 0.03 100 1010.7
20260507054608 58 0 0.0 2.0 0.03 0.17 0.03 100 1010.7
20260507054057 58 0 0.0 2.0 0.03 0.17 0.03 100 1010.8
20260507053557 58 0 0.0 2.0 0.03 0.17 0.03 100 1010.7
20260507053058 59 0 0.0 1.0 0.02 0.16 0.02 100 1010.9
20260507052558 60 0 0.0 4.0 0.01 0.15 0.01 100 1010.7
20260507052057 60 0 0.0 4.0 0.00 0.14 0.00 100 1011.1
20260507051556 61 300 0.0 3.0 0.00 0.14 0.00 11 1010.9
20260507051058 62 0 0.0 3.0 0.00 0.14 0.00 18 1010.9
20260507050556 62 0 0.0 3.0 0.00 0.14 0.00 21 1011.2
20260507050056 62 0 0.0 3.0 0.00 0.14 0.00 25 1010.8
20260507045601 62 0 0.0 3.0 0.00 0.14 0.00 31 1010.6
20260507045058 62 285 0.0 2.0 0.00 0.14 0.00 32 1010.5
20260507044603 63 0 0.0 4.0 0.00 0.14 0.00 32 1010.7
20260507044058 63 0 0.0 4.0 0.00 0.14 0.00 34 1010.5
20260507043557 64 0 0.0 4.0 0.00 0.14 0.00 34 1010.4
20260507043055 64 259 0.0 4.0 0.00 0.14 0.00 18 1010.7
20260507042557 64 0 0.0 0.0 0.00 0.14 0.00 9 1010.5
20260507042056 64 0 0.0 0.0 0.00 0.14 0.00 2 1010.3
20260507041556 64 0 0.0 0.0 0.00 0.14 0.00 100 1010.2
20260507041057 64 0 0.0 0.0 0.00 0.14 0.00 2 1010.1
20260507040601 64 0 0.0 0.0 0.00 0.14 0.00 5 1009.8
20260507040055 64 0 0.0 0.0 0.00 0.14 0.00 7 1009.8
20260507035557 64 0 0.0 0.0 0.00 0.14 0.14 10 1009.7
20260507035057 64 0 0.0 0.0 0.00 0.14 0.14 12 1010.0
20260507034601 64 0 0.0 0.0 0.00 0.14 0.14 13 1010.1
20260507034057 65 0 0.0 0.0 0.00 0.14 0.14 14 1010.3
20260507033557 65 0 0.0 0.0 0.00 0.14 0.14 17 1010.3
20260507033055 65 0 0.0 0.0 0.00 0.14 0.14 21 1010.1
20260507032558 65 0 0.0 0.0 0.00 0.14 0.14 23 1010.0
20260507032057 65 0 0.0 0.0 0.00 0.14 0.14 27 1010.0
20260507031557 66 0 0.0 0.0 0.00 0.14 0.14 29 1010.0
20260507031103 66 0 0.0 1.0 0.00 0.14 0.14 31 1009.9
20260507030557 66 0 0.0 1.0 0.00 0.14 0.14 30 1009.8
20260507030106 66 0 0.0 1.0 0.00 0.14 0.14 33 1009.8
20260507025556 67 0 0.0 1.0 0.00 0.14 0.14 25 1009.9
20260507025057 67 0 0.0 1.0 0.00 0.14 0.14 11 1009.8
20260507024605 67 0 0.0 1.0 0.00 0.14 0.14 8 1009.8
20260507024100 67 0 0.0 3.0 0.00 0.14 0.14 100 1009.5
20260507023559 67 0 0.0 3.0 0.00 0.14 0.14 100 1009.4
20260507023055 67 0 0.0 3.0 0.00 0.14 0.14 100 1009.4
20260507022557 67 0 0.0 0.0 0.00 0.14 0.14 100 1009.3
20260507022058 67 0 0.0 0.0 0.00 0.14 0.14 100 1009.3
20260507021616 67 0 0.0 0.0 0.00 0.14 0.14 100 1009.2
20260507021057 67 0 0.0 0.0 0.00 0.14 0.14 100 1009.3
20260507020557 67 0 0.0 0.0 0.00 0.14 0.14 100 1009.2
20260507020106 67 0 0.0 0.0 0.00 0.14 0.14 100 1009.1
20260507015558 67 0 0.0 0.0 0.00 0.14 0.14 100 1009.1
20260507015100 67 0 0.0 0.0 0.00 0.14 0.14 100 1009.2
20260507014614 67 0 0.0 0.0 0.00 0.14 0.14 100 1009.4
20260507014057 68 0 0.0 0.0 0.00 0.14 0.14 100 1009.4
20260507013556 68 0 0.0 0.0 0.00 0.14 0.14 100 1009.5
20260507013056 68 0 0.0 0.0 0.00 0.14 0.14 100 1009.4
20260507012603 68 0 0.0 0.0 0.00 0.14 0.14 100 1009.3
20260507012057 68 0 0.0 0.0 0.00 0.14 0.14 100 1009.6
20260507011555 68 0 0.0 0.0 0.00 0.14 0.14 100 1009.6
20260507011058 68 0 0.0 0.0 0.00 0.14 0.14 100 1009.5
20260507010602 68 0 0.0 0.0 0.00 0.14 0.14 100 1009.4
20260507010118 68 0 0.0 0.0 0.00 0.14 0.14 100 1009.3
20260507005559 68 0 0.0 0.0 0.00 0.14 0.14 100 1009.3
20260507005058 68 0 0.0 0.0 0.00 0.14 0.14 100 1009.2
20260507004557 68 0 0.0 0.0 0.00 0.14 0.14 100 1009.3
20260507004059 69 0 0.0 0.0 0.00 0.14 0.14 100 1008.9
20260507003559 69 0 0.0 0.0 0.00 0.14 0.14 100 1009.0
20260507003059 69 0 0.0 2.0 0.00 0.14 0.14 1 1009.2
20260507002558 69 0 0.0 2.0 0.00 0.14 0.14 1 1009.0
20260507002058 69 0 0.0 2.0 0.00 0.14 0.14 2 1008.9
20260507001606 69 0 0.0 1.0 0.00 0.14 0.14 3 1009.1
20260507001101 69 0 0.0 1.0 0.00 0.14 0.14 3 1009.0
20260507000558 69 0 0.0 0.0 0.00 0.14 0.14 4 1009.0
20260507000059 69 0 0.0 1.0 0.00 0.14 0.14 6 1008.8
20260506235558 69 0 0.0 1.0 0.00 0.14 0.14 5 1008.9
20260506235103 69 0 0.0 0.0 0.00 0.14 0.14 6 1009.1
20260506234600 69 0 0.0 0.0 0.00 0.14 0.14 6 1008.8
20260506234058 69 0 0.0 0.0 0.00 0.14 0.14 7 1008.7
20260506233559 69 0 0.0 0.0 0.00 0.14 0.14 9 1008.8
20260506233059 70 0 0.0 0.0 0.00 0.14 0.14 9 1008.7
20260506232558 70 0 0.0 0.0 0.00 0.14 0.14 10 1008.5
20260506232058 70 0 0.0 1.0 0.00 0.14 0.14 10 1008.5
20260506231559 70 0 0.0 1.0 0.00 0.14 0.14 11 1008.5
20260506231058 70 0 0.0 1.0 0.00 0.14 0.14 10 1008.6
20260506230600 70 0 0.0 1.0 0.00 0.14 0.14 13 1008.7
20260506230104 70 0 0.0 1.0 0.00 0.14 0.14 13 1008.5
20260506225558 70 0 0.0 2.0 0.00 0.14 0.14 15 1008.2
20260506225059 70 0 0.0 2.0 0.00 0.14 0.14 16 1008.4
20260506224558 70 0 0.0 2.0 0.00 0.14 0.14 16 1008.5
20260506224101 70 0 0.0 2.0 0.00 0.14 0.14 18 1008.4
20260506223557 71 0 0.0 0.0 0.00 0.14 0.14 17 1008.4
20260506223058 71 0 0.0 1.0 0.00 0.14 0.14 16 1008.5
20260506222557 71 0 0.0 1.0 0.00 0.14 0.14 18 1008.5
20260506222058 71 0 0.0 1.0 0.00 0.14 0.14 20 1008.5
20260506221558 71 0 0.0 1.0 0.00 0.14 0.14 18 1008.5
20260506221101 71 0 0.0 0.0 0.00 0.14 0.14 18 1008.5
20260506220557 71 0 0.0 2.0 0.00 0.14 0.14 20 1008.5
20260506220057 71 0 0.0 2.0 0.00 0.14 0.14 21 1008.6
20260506215559 71 0 0.0 1.0 0.00 0.14 0.14 22 1008.6
20260506215058 71 0 0.0 1.0 0.00 0.14 0.14 21 1008.6
20260506214559 71 0 0.0 1.0 0.00 0.14 0.14 22 1008.5
20260506214059 71 0 0.0 0.0 0.00 0.14 0.14 23 1008.4
20260506213557 71 0 0.0 3.0 0.00 0.14 0.14 23 1008.4
20260506213058 71 0 0.0 3.0 0.00 0.14 0.14 24 1008.2
20260506212558 71 0 0.0 1.0 0.00 0.14 0.14 24 1008.2
20260506212058 71 0 0.0 1.0 0.00 0.14 0.14 23 1008.1
20260506211557 71 0 0.0 0.0 0.00 0.14 0.14 21 1008.2
20260506211058 71 0 0.0 0.0 0.00 0.14 0.14 20 1008.3
20260506210558 71 0 0.0 0.0 0.00 0.14 0.14 21 1008.1
20260506210058 71 0 0.0 0.0 0.00 0.14 0.14 18 1008.0
20260506205601 71 0 0.0 0.0 0.00 0.14 0.14 21 1008.0
20260506205057 71 0 0.0 0.0 0.00 0.14 0.14 22 1007.9
20260506204600 71 0 0.0 1.0 0.00 0.14 0.14 23 1008.1
20260506204057 71 0 0.0 1.0 0.00 0.14 0.14 23 1007.9
20260506203557 71 0 0.0 1.0 0.00 0.14 0.14 25 1008.1
20260506203059 71 0 0.0 1.0 0.00 0.14 0.14 27 1007.9
20260506202559 71 0 0.0 2.0 0.00 0.14 0.14 29 1007.8
20260506202058 71 0 0.0 8.0 0.00 0.14 0.14 31 1007.9
20260506201625 72 0 0.0 8.0 0.00 0.14 0.14 35 1007.9
20260506201057 72 0 0.0 5.0 0.00 0.14 0.14 28 1008.0
20260506200558 72 0 0.0 5.0 0.00 0.14 0.14 32 1007.9
20260506200058 73 0 0.0 2.0 0.00 0.14 0.14 32 1007.9
20260506195559 73 0 0.0 1.0 0.00 0.14 0.14 30 1007.8
20260506195058 72 0 0.0 1.0 0.00 0.14 0.14 26 1007.8
20260506194556 72 0 0.0 6.0 0.00 0.14 0.14 26 1008.0
20260506194101 72 0 0.0 6.0 0.00 0.14 0.14 26 1007.9
20260506193557 72 0 0.0 6.0 0.00 0.14 0.14 30 1008.0
20260506193058 71 0 0.0 3.0 0.00 0.14 0.14 24 1007.9
20260506192557 71 0 0.0 3.0 0.00 0.14 0.14 25 1008.0
20260506192057 71 0 0.0 1.0 0.00 0.14 0.14 18 1008.0
20260506191559 71 0 0.0 3.0 0.00 0.14 0.14 13 1008.1
20260506191057 70 0 0.0 3.0 0.00 0.14 0.14 18 1008.2
20260506190559 70 360 0.0 3.0 0.00 0.14 0.14 10 1008.3
20260506190058 70 207 0.0 7.0 0.00 0.14 0.14 7 1008.4
20260506185559 70 0 0.0 7.0 0.00 0.14 0.14 11 1008.5
20260506185059 69 0 0.0 5.0 0.00 0.14 0.14 10 1008.6
20260506184601 69 0 0.0 4.0 0.00 0.14 0.14 3 1008.7
20260506184058 69 0 0.0 5.0 0.00 0.14 0.14 3 1008.6
20260506183558 69 0 0.0 5.0 0.00 0.14 0.14 100 1008.5
20260506183059 69 0 0.0 11.0 0.00 0.14 0.14 3 1008.7
20260506182557 68 0 0.0 11.0 0.00 0.14 0.14 100 1008.8
20260506182057 68 0 0.0 11.0 0.00 0.14 0.14 2 1008.8
20260506181558 68 0 0.0 2.0 0.00 0.14 0.14 100 1008.7
20260506181059 68 0 0.0 2.0 0.00 0.14 0.14 100 1008.9
20260506180559 68 0 0.0 9.0 0.00 0.14 0.14 100 1008.9
20260506180059 67 0 1.0 9.0 0.00 0.14 0.14 100 1009.0
20260506175557 67 0 0.0 5.0 0.00 0.14 0.14 100 1008.9
20260506175057 67 0 0.0 5.0 0.00 0.14 0.14 100 1008.9
20260506174558 67 0 0.0 3.0 0.00 0.14 0.14 100 1009.0
20260506174058 67 0 0.0 3.0 0.00 0.14 0.14 100 1008.9
20260506173557 66 0 0.0 3.0 0.00 0.14 0.14 100 1009.0
20260506173120 66 0 0.0 2.0 0.00 0.14 0.14 100 1009.0
20260506172557 66 0 0.0 3.0 0.00 0.14 0.14 100 1009.1
20260506172057 66 0 0.0 7.0 0.00 0.14 0.14 100 1009.2
20260506171559 65 194 0.0 7.0 0.00 0.14 0.14 100 1009.2
20260506171058 65 0 0.0 3.0 0.00 0.14 0.14 100 1009.0
20260506170600 65 0 0.0 3.0 0.00 0.14 0.14 100 1009.1
20260506170057 64 0 0.0 3.0 0.00 0.14 0.14 100 1009.1
20260506165559 64 221 0.0 3.0 0.00 0.14 0.14 100 1009.4
20260506165058 64 198 0.0 3.0 0.00 0.14 0.14 100 1009.4
20260506164559 64 0 0.0 3.0 0.00 0.14 0.14 100 1009.5
20260506164057 64 0 0.0 2.0 0.00 0.14 0.14 100 1009.5
20260506163557 63 0 0.0 5.0 0.01 0.14 0.14 100 1009.5
20260506163109 64 0 0.0 5.0 0.01 0.14 0.14 100 1009.4
20260506162557 63 0 0.0 5.0 0.01 0.14 0.14 100 1009.4
20260506162057 63 0 0.0 5.0 0.01 0.14 0.14 100 1009.3
20260506161600 63 0 0.0 5.0 0.01 0.14 0.14 100 1009.4
20260506161057 63 0 0.0 5.0 0.01 0.14 0.14 100 1009.5
20260506160557 63 0 0.0 5.0 0.01 0.14 0.14 100 1009.5
20260506160057 63 0 0.0 5.0 0.02 0.14 0.14 100 1009.7
20260506155600 62 173 0.0 9.0 0.02 0.14 0.14 100 1009.8
20260506155057 62 196 0.0 9.0 0.04 0.14 0.14 100 1009.7
20260506154602 62 0 1.0 9.0 0.05 0.14 0.14 100 1009.7
20260506154058 62 0 0.0 7.0 0.07 0.14 0.14 100 1009.6
20260506153558 62 0 0.0 7.0 0.07 0.13 0.13 100 1009.4
20260506153056 62 0 0.0 2.0 0.07 0.13 0.13 100 1009.6
20260506152558 62 0 0.0 3.0 0.08 0.13 0.13 100 1009.9
20260506152058 62 0 0.0 6.0 0.08 0.13 0.13 100 1010.1
20260506151559 62 360 0.0 6.0 0.09 0.13 0.13 100 1010.1
20260506151057 62 0 0.0 4.0 0.10 0.13 0.13 100 1010.3
20260506150601 62 0 0.0 4.0 0.11 0.13 0.13 100 1010.4
20260506150057 62 0 0.0 2.0 0.10 0.12 0.12 100 1010.4
20260506145600 62 0 0.0 2.0 0.11 0.12 0.12 100 1010.4
20260506145057 62 0 0.0 2.0 0.09 0.10 0.10 100 1010.4
20260506144559 62 0 0.0 2.0 0.08 0.08 0.08 100 1010.6
20260506144057 62 0 0.0 2.0 0.07 0.07 0.07 100 1010.3
20260506143557 62 0 0.0 2.0 0.06 0.06 0.06 100 1010.4
20260506143056 62 0 0.0 1.0 0.06 0.06 0.06 100 1010.3
20260506142558 63 0 0.0 1.0 0.05 0.05 0.05 100 1010.3
20260506142057 63 0 0.0 4.0 0.05 0.05 0.05 100 1010.3
20260506141558 63 0 0.0 4.0 0.04 0.04 0.04 100 1010.3
20260506141057 63 0 0.0 4.0 0.03 0.03 0.03 100 1010.5
20260506140601 64 202 0.0 3.0 0.02 0.02 0.02 100 1010.4
20260506135557 65 0 0.0 2.0 0.01 0.01 0.01 4 1010.7
20260506135057 65 0 0.0 0.0 0.01 0.01 0.01 16 1010.7
20260506134557 65 0 0.0 1.0 0.00 0.00 0.00 21 1010.9
20260506134059 65 0 0.0 1.0 0.00 0.00 0.00 23 1010.9
20260506133601 65 0 0.0 1.0 0.00 0.00 0.00 26 1010.9
20260506133103 66 0 0.0 2.0 0.00 0.00 0.00 32 1010.8
20260506132557 66 0 0.0 2.0 0.00 0.00 0.00 35 1010.6
20260506132057 66 0 0.0 3.0 0.00 0.00 0.00 36 1010.5
20260506131600 66 0 0.0 3.0 0.00 0.00 0.00 38 1010.4
20260506131055 66 209 0.0 1.0 0.00 0.00 0.00 38 1010.3
20260506130557 66 0 0.0 4.0 0.00 0.00 0.00 36 1010.3
20260506130057 66 0 0.0 4.0 0.00 0.00 0.00 39 1010.1
20260506125557 66 0 0.0 2.0 0.00 0.00 0.00 39 1010.1
20260506125057 66 0 0.0 3.0 0.00 0.00 0.00 40 1010.1
20260506124600 66 143 0.0 3.0 0.00 0.00 0.00 43 1010.2
20260506124101 66 0 0.0 4.0 0.00 0.00 0.00 43 1010.3
20260506123557 66 0 0.0 4.0 0.00 0.00 0.00 43 1010.4
20260506123058 66 0 0.0 2.0 0.00 0.00 0.00 42 1010.4
20260506122557 66 0 0.0 5.0 0.00 0.00 0.00 42 1010.7
20260506122058 66 0 0.0 5.0 0.00 0.00 0.00 44 1010.7
20260506121605 66 0 0.0 1.0 0.00 0.00 0.00 45 1010.6
20260506121058 66 0 0.0 4.0 0.00 0.00 0.00 47 1010.7
20260506120558 66 0 0.0 5.0 0.00 0.00 0.00 48 1010.7
20260506120111 66 0 0.0 5.0 0.00 0.00 0.00 49 1010.6
20260506115557 67 0 0.0 3.0 0.00 0.00 0.00 49 1010.5
20260506115057 67 0 0.0 3.0 0.00 0.00 0.00 48 1010.4
20260506114619 67 208 0.0 2.0 0.00 0.00 0.00 48 1010.4
20260506114057 67 0 0.0 5.0 0.00 0.00 0.00 47 1010.3
20260506113556 67 0 0.0 5.0 0.00 0.00 0.00 47 1010.2
20260506113058 66 0 0.0 3.0 0.00 0.00 0.00 46 1010.1
20260506112601 66 0 0.0 5.0 0.00 0.00 0.00 45 1010.0
20260506112057 66 0 0.0 5.0 0.00 0.00 0.00 45 1010.1
20260506111557 66 0 0.0 6.0 0.00 0.00 0.00 44 1010.2
20260506111057 66 0 0.0 6.0 0.00 0.00 0.00 44 1010.0
20260506110601 66 144 0.0 6.0 0.00 0.00 0.00 44 1009.9
20260506110058 66 0 0.0 10.0 0.00 0.00 0.00 44 1009.8
20260506105601 66 0 1.0 10.0 0.00 0.00 0.00 44 1009.8
20260506105058 66 0 0.0 3.0 0.00 0.00 0.00 44 1009.9
20260506104555 66 0 0.0 2.0 0.00 0.00 0.00 44 1009.8
20260506104057 66 0 0.0 10.0 0.00 0.00 0.00 44 1009.7
20260506103557 66 0 0.0 10.0 0.00 0.00 0.00 45 1009.7
20260506103055 66 0 0.0 3.0 0.00 0.00 0.00 45 1009.7
20260506102558 66 0 0.0 2.0 0.00 0.00 0.00 45 1009.7
20260506102056 65 0 0.0 2.0 0.00 0.00 0.00 45 1009.8
20260506101557 65 0 0.0 2.0 0.00 0.00 0.00 45 1009.8
20260506101057 66 188 0.0 2.0 0.00 0.00 0.00 47 1009.7
20260506100557 66 0 0.0 2.0 0.00 0.00 0.00 47 1009.7
20260506100057 66 0 0.0 2.0 0.00 0.00 0.00 47 1009.7
20260506095557 66 0 0.0 1.0 0.00 0.00 0.00 48 1009.7
20260506095057 66 0 0.0 3.0 0.00 0.00 0.00 48 1009.9
20260506094557 66 0 0.0 5.0 0.00 0.00 0.00 48 1009.8
20260506094057 66 0 0.0 5.0 0.00 0.00 0.00 48 1009.8
20260506093557 66 0 0.0 5.0 0.00 0.00 0.00 49 1009.8
20260506093111 66 0 0.0 5.0 0.00 0.00 0.00 50 1009.8
20260506092558 66 0 0.0 8.0 0.00 0.00 0.00 50 1009.7
20260506092058 66 0 0.0 8.0 0.00 0.00 0.00 51 1009.8
20260506091555 66 0 0.0 8.0 0.00 0.00 0.00 51 1009.9
20260506091057 67 0 0.0 7.0 0.00 0.00 0.00 52 1009.9
20260506090557 67 0 0.0 7.0 0.00 0.00 0.00 53 1009.8
20260506090103 67 0 0.0 4.0 0.00 0.00 0.00 53 1009.9
20260506085557 67 0 0.0 1.0 0.00 0.00 0.00 54 1010.0
20260506085057 67 0 0.0 7.0 0.00 0.00 0.00 54 1010.0
20260506084556 67 0 0.0 7.0 0.00 0.00 0.00 55 1009.9
20260506084055 67 0 0.0 3.0 0.00 0.00 0.00 55 1009.9
20260506083555 68 0 0.0 4.0 0.00 0.00 0.00 56 1010.0
20260506083058 68 0 0.0 4.0 0.00 0.00 0.00 56 1009.9
20260506082601 68 202 0.0 3.0 0.00 0.00 0.00 56 1009.9
20260506082058 68 0 0.0 3.0 0.00 0.00 0.00 57 1009.9
20260506081557 68 0 0.0 5.0 0.00 0.00 0.00 57 1009.8
20260506081057 68 191 0.0 5.0 0.00 0.00 0.00 57 1009.9
20260506080558 68 157 0.0 4.0 0.00 0.00 0.00 58 1009.8
20260506080110 68 0 0.0 3.0 0.00 0.00 0.00 58 1009.8
20260506073111 69 0 0.0 5.0 0.00 0.00 0.00 60 1009.9
20260506072601 69 0 0.0 3.0 0.00 0.00 0.00 60 1010.1
20260506072058 70 0 0.0 3.0 0.00 0.00 0.00 60 1010.1
20260506071557 70 0 0.0 4.0 0.00 0.00 0.00 60 1010.1
20260506071058 70 0 0.0 4.0 0.00 0.00 0.00 60 1010.1
20260506070558 70 0 0.0 5.0 0.00 0.00 0.00 60 1010.1